Midland International Airport Midland US
ICAO: KMAF
IATA: MAF
Category: Medium
Scheduled Services: Yes

Elevation: 2871 ft
TransAlt. 18000 ft.

Airport Communications:
APP/DEP:121.1
ATIS:126.8
CLNC DEL:118.05
CTAF:118.7
GND:121.9
SAN ANGELO RDO:122.6
TWR:118.7
UNICOM:122.95

KMAF Zoom In..

If you have problems with the map follow the link
https://www.worldairports.se/pages/airport.php?
ICAO=KMAF

Runways:

(A) RW 04 length 4605 ft width 75 ft
---- / hdg 45

(B) RW 10 length 8302 ft width 150 ft
ILS 110.30 / hdg 105

(C) RW 16L length 4247 ft width 100 ft
---- / hdg 168

(D) RW 16R length 9501 ft width 150 ft
---- / hdg 166

(E) RW 22 length 4605 ft width 75 ft
---- / hdg 225

(F) RW 28 length 8302 ft width 150 ft
---- / hdg 285

(G) RW 34L length 9501 ft width 150 ft
---- / hdg 346

(H) RW 34R length 4247 ft width 100 ft
---- / hdg 348

Location; KMAF
Day. 21 / Time. 05.53 Zulu
* Altimeter: 30.39
* Temperature: 12° c. 53.6°f.
* Wind from: 050° Speed 06 kn.
Dewpoint: 08° c.
Visibility: 10 Statute Miles.
Clouds: Overcast 12000 ft.

KMAF 210553Z AUTO 05006KT 10SM OVC120 12/08 A3039 RMK AO2 SLP265 T01170083 10172 20117 401940117 50002


Wind From 050°
Speed 06 kn.

 
 
jpsmedia.com for Web Design worldairports.se 2018   terms of use